Location: Newark
(35.7833°N, 139.8000°E)
Time: 05:36:59
(UTC+00:00)

OTV 5 (USA 277) - Visible Passes

Search period start: 23 September 2019 00:00
Search period end: 03 October 2019 00:00
Orbit: 295 x 339 km, 54.5° (Epoch: 08 September)

Date Brightness Start Highest point End Pass type
(mag) Time Alt. Az. Time Alt. Az. Time Alt. Az.
28 Sep ? 19:32:41 10° SSE 19:34:08 13° SE 19:35:33 10° E visible
29 Sep ? 19:45:48 10° SSW 19:48:29 40° SE 19:51:11 10° ENE visible
30 Sep ? 20:00:12 10° WSW 20:02:59 53° NW 20:05:46 10° NE visible
01 Oct ? 18:43:48 21° ESE 18:43:48 21° ESE 18:45:41 10° ENE visible
02 Oct ? 18:58:32 45° NE 18:58:32 45° NE 19:00:38 10° NE visible
